Location: Eastchurch
(51.4000°N, 0.8667°E)
Time: 15:12:12
(UTC+00:00)

IRS-1C - Visible Passes

Search period start: 11 April 2026 00:00
Search period end: 21 April 2026 00:00
Orbit: 813 x 814 km, 99.0° (Epoch: 11 April)

Date Brightness Start Highest point End Pass type
(mag) Time Alt. Az. Time Alt. Az. Time Alt. Az.
11 Apr 7.1 19:27:23 10° WSW 19:30:27 15° W 19:33:31 10° NW visible
15 Apr 7.2 19:37:09 10° WSW 19:39:34 13° W 19:42:00 10° WNW visible
19 Apr 7.4 19:47:15 10° W 19:48:41 11° W 19:50:07 10° WNW visible
